Regional Weather Roundup
Issued by NWS

Home | Current Version | Previous Version | Graphics & Text | Print | Product List | Glossary On
Versions: 1 2 3 4 5 6 7 8 9 10 11 12 13 14 15 16 17 18 19 20 21 22 23 24 25 26 27 28 29 30 31 32 33 34 35 36 37 38 39 40 41 42 43 44 45 46 47 48 49 50
000
ASUS45 KTFX 030010
RWRMT
MONTANA REGIONAL WEATHER ROUNDUP
NATIONAL WEATHER SERVICE GREAT FALLS MT
600 PM MDT SUN AUG 02 2015

NOTE: "FAIR" INDICATES FEW OR NO CLOUDS BELOW 12000 FEET WITH NO
SIGNIFICANT WEATHER AND/OR OBSTRUCTIONS TO VISIBILITY.

MTZ001>007-043-030100-
WEST OF THE DIVIDE

CITY           SKY/WX    TMP DP  RH WIND       PRES   REMARKS
KALISPELL      CLEAR     94  27   9 S10       29.88F
MISSOULA       SUNNY     95  15   5 CALM      29.89F
BUTTE          SUNNY     89  21   8 CALM      30.06F
MULLAN PASS    SUNNY     83  27  13 VRB3      30.13F
DEER LODGE       N/A     90  30  12 N5        30.04F
EUREKA           N/A     97  30   9 W7        29.84F HX  91
HAMILTON         N/A     90  41  18 NW9       29.91F
LIBBY            N/A     97  28   9 W5        29.84F HX  91
PLAINS           N/A    102  38  11 N3        29.85F HX  96
RONAN            N/A     94  31  10 NE3       29.96F
THOMPSON FALLS   N/A    100  24   7 W10       29.87F HX  93
$$

MTZ008-052>055-030100-
SOUTHWEST MONTANA

CITY           SKY/WX    TMP DP  RH WIND       PRES   REMARKS
BOZEMAN        SUNNY     90  16   6 CALM      30.00F
DILLON         SUNNY     90  31  12 NE9       30.02F
W YELLOWSTONE  SUNNY     84  27  12 W3        30.14S
THREE FORKS      N/A     91  14   6 E2        29.99F
TWIN BRIDGES     N/A     91  33  12 W3        30.00F
$$

MTZ009-010-012-014-046-048-049-054-030100-
EAST SLOPES AND CENTRAL MONTANA

CITY           SKY/WX    TMP DP  RH WIND       PRES   REMARKS
CUT BANK       SUNNY     84  42  22 S5        29.98F
GREAT FALLS    SUNNY     87  39  18 E9        29.97F
MALMSTROM AFB  SUNNY     87  35  15 E7        29.96F
HELENA         SUNNY     93  36  13 NE6       29.95F
CONRAD           N/A     87  46  23 NE5       30.01S
$$

MTZ011-013-016-021-045-047-050-051-030100-
NORTH CENTRAL MONTANA

CITY           SKY/WX    TMP DP  RH WIND       PRES   REMARKS
HAVRE          SUNNY     83  52  34 E16       29.95F
LEWISTOWN      SUNNY     84  47  27 E9        30.04S
CHINOOK          N/A     81  52  36 E12       29.96F
FORT BENTON      N/A     88  50  27 NE5       29.95F
$$

MTZ017>020-022>027-061-062-030100-
NORTHEAST MONTANA

CITY           SKY/WX    TMP DP  RH WIND       PRES   REMARKS
GLASGOW        SUNNY     83  46  27 N8        29.98S
JORDAN           N/A     84  48  28 E8        29.99F
SIDNEY         SUNNY    N/A N/A N/A N12       29.96F
WOLF POINT     SUNNY     85  46  25 NE7       29.98S
MALTA            N/A     86  53  32 NE1       29.96S
PLENTYWOOD       N/A     75  46  35 NW7       30.00F
POPLAR           N/A     81  46  30 N8        29.98F
SCOBEY           N/A     76  45  33 N9        30.01F
$$

MTZ028>42-056>058-030100-
SOUTHCENTRAL AND SOUTHEAST MONTANA

CITY           SKY/WX    TMP DP  RH WIND       PRES   REMARKS
BAKER          SUNNY     84  46  26 N8        30.01S
BILLINGS       PTSUNNY   86  42  21 NE13      30.00F
LIVINGSTON     SUNNY     91  35  13 E10       30.01F
MILES CITY     SUNNY     87  48  25 NE8       29.97F
EKALAKA          N/A     82  45  27 N6        30.00F
FORSYTH          N/A     86  45  23 E10G17    29.96F
LAUREL           N/A     88  42  19 N6        29.99F
ROUNDUP          N/A     87  40  19 NE5       29.92F
$$

REGIONAL REPORTS...DAKOTAS

CITY           SKY/WX    TMP DP  RH WIND       PRES   REMARKS
WILLISTON      SUNNY     81  45  28 N15G21    29.97F
MINOT          SUNNY     77  46  33 NW15      29.92S
DICKINSON      SUNNY     79  46  31 N9        29.97S
CROSBY         FAIR      75  46  35 NW15G21   29.98S
BISMARCK       SUNNY     78  52  40 N12       29.93S
GRAND FORKS    SUNNY     76  48  37 NW16G23   29.81S
FARGO          SUNNY     76  47  35 NW15      29.84R
BUFFALO SD       N/A     84  47  27 NE9       29.93S
RAPID CITY     SUNNY     84  54  35 NE8       29.97F
$$

REGIONAL REPORTS...WYOMING/IDAHO/WASHINGTON

CITY           SKY/WX    TMP DP  RH WIND       PRES   REMARKS
GILLETTE       SUNNY     89  46  22 N15       30.01R
SHERIDAN       SUNNY     90  41  18 NW14      30.00S
BUFFALO WY     SUNNY     86  40  19 NW15G21   30.08S
CODY           SUNNY     81  41  24 N14       30.07S
YELLOWSTONE LA   N/A     77  40  26 CALM      30.26F
IDAHO FALLS    PTSUNNY   95  29   9 N5        29.97F
SALMON         MOSUNNY   93  39  15 NW5       29.86F
BOISE          PTSUNNY   99  40  13 NW7       29.79F HX  94
SPOKANE        MOSUNNY   97  17   5 SW8       29.85F HX  90
$$

REGIONAL REPORTS...ALBERTA

CITY           SKY/WX    TMP DP  RH WIND       PRES   REMARKS
EDMONTON       MOSUNNY   77  54  44 SE9       29.94F
CALGARY        PTSUNNY   81  54  39 SE18      29.97S
MEDICINE HAT   MOSUNNY   86  48  26 E9        29.94F
WATERTON GATE    N/A     82  52  34 NE8         N/A
MILK RIVER       N/A     84  48  28 SE8         N/A
ONEFOUR          N/A     82  46  28 SE7         N/A
$$

REGIONAL REPORTS...SASKATCHEWAN

CITY           SKY/WX    TMP DP  RH WIND       PRES   REMARKS
SWIFT CURRENT  MOSUNNY   73  50  43 N7        30.03S
REGINA         MOSUNNY   75  50  41 NW9       29.99S
SASKATOON      MOSUNNY   75  50  41 N9        29.99F
CYPRESS HILLS    N/A     72  50  46 NE6         N/A
VAL MARIE        N/A     77  50  38 NE5         N/A
ROCKGLEN         N/A     72  50  46 NW7         N/A
$$


USA.gov is the U.S. government's official web portal to all federal, state and local government web resources and services.